• In Hungary
  • List of Countries
  • For 7 days
  • Water Temperature
  • Satellite Maps
  • Weather Map
  • News
  • Weather Widgets
  • user-avatar
    Login

    Hourly Weather Kontich

    Today, 21 September, Friday

    Time Temperature Precipitation Wind Pressure Humidity
    00:00 +21°C° 0 mm 6 mps 754 mmHg 57%
    01:00 +21°C° 0 mm 7 mps 753 mmHg 60%
    02:00 +20°C° 0 mm 8 mps 752 mmHg 62%
    03:00 +19°C° 0 mm 9 mps 752 mmHg 64%
    04:00 +18°C° 0.6 mm 9 mps 752 mmHg 69%
    05:00 +18°C° 0.6 mm 9 mps 752 mmHg 74%
    06:00 +17°C° 0.6 mm 10 mps 752 mmHg 79%
    07:00 +16°C° 0.5 mm 10 mps 753 mmHg 73%
    08:00 +15°C° 0.5 mm 9 mps 754 mmHg 67%
    09:00 +15°C° 0.5 mm 9 mps 755 mmHg 62%
    10:00 +15°C° 0 mm 9 mps 756 mmHg 56%
    11:00 +16°C° 0 mm 9 mps 756 mmHg 51%
    12:00 +17°C° 0 mm 9 mps 757 mmHg 45%
    13:00 +17°C° 0 mm 9 mps 757 mmHg 45%
    14:00 +17°C° 0 mm 10 mps 758 mmHg 45%
    15:00 +17°C° 0 mm 10 mps 758 mmHg 45%
    16:00 +16°C° 0 mm 9 mps 758 mmHg 48%
    17:00 +15°C° 0 mm 8 mps 759 mmHg 52%
    18:00 +14°C° 0 mm 7 mps 759 mmHg 56%
    19:00 +14°C° 0.1 mm 7 mps 760 mmHg 58%
    20:00 +12°C° 0.1 mm 7 mps 760 mmHg 60%
    21:00 +12°C° 0.1 mm 7 mps 761 mmHg 62%
    22:00 +12°C° 0.1 mm 7 mps 761 mmHg 64%
    23:00 +13°C° 0.1 mm 6 mps 761 mmHg 66%

    Tomorrow, 22 September, Saturday

    Time Temperature Precipitation Wind Pressure Humidity
    00:00 +11°C° 0.1 mm 6 mps 762 mmHg 68%
    01:00 +12°C° 0 mm 5 mps 762 mmHg 70%
    02:00 +12°C° 0 mm 5 mps 763 mmHg 71%
    03:00 +10°C° 0 mm 5 mps 763 mmHg 73%
    04:00 +10°C° 0 mm 5 mps 763 mmHg 73%
    05:00 +10°C° 0 mm 5 mps 764 mmHg 74%
    06:00 +12°C° 0 mm 5 mps 764 mmHg 74%
    07:00 +13°C° 0 mm 5 mps 764 mmHg 70%
    08:00 +14°C° 0 mm 5 mps 764 mmHg 65%
    09:00 +15°C° 0 mm 6 mps 765 mmHg 61%
    10:00 +16°C° 0 mm 6 mps 765 mmHg 58%
    11:00 +16°C° 0 mm 6 mps 765 mmHg 55%
    12:00 +17°C° 0 mm 6 mps 765 mmHg 52%
    13:00 +17°C° 0 mm 5 mps 765 mmHg 52%
    14:00 +17°C° 0 mm 5 mps 765 mmHg 52%
    15:00 +17°C° 0 mm 5 mps 765 mmHg 52%
    16:00 +17°C° 0 mm 4 mps 765 mmHg 56%
    17:00 +16°C° 0 mm 3 mps 765 mmHg 59%
    18:00 +15°C° 0 mm 2 mps 765 mmHg 62%
    19:00 +15°C° 0 mm 2 mps 765 mmHg 65%
    20:00 +14°C° 0 mm 2 mps 765 mmHg 67%
    21:00 +14°C° 0 mm 2 mps 765 mmHg 69%
    22:00 +14°C° 0.7 mm 2 mps 764 mmHg 76%
    23:00 +13°C° 0.7 mm 2 mps 764 mmHg 82%

    Day after tomorrow, 23 September, Sunday

    Time Temperature Precipitation Wind Pressure Humidity
    00:00 +13°C° 0.7 mm 2 mps 763 mmHg 88%
    01:00 +12°C° 0.8 mm 3 mps 762 mmHg 89%
    02:00 +12°C° 0.8 mm 3 mps 762 mmHg 90%
    03:00 +11°C° 0.8 mm 4 mps 761 mmHg 90%
    04:00 +12°C° 0.7 mm 4 mps 760 mmHg 91%
    05:00 +12°C° 0.7 mm 4 mps 759 mmHg 91%
    06:00 +12°C° 0.7 mm 4 mps 759 mmHg 92%
    07:00 +13°C° 0.5 mm 4 mps 758 mmHg 92%
    08:00 +14°C° 0.5 mm 4 mps 758 mmHg 93%
    09:00 +15°C° 0.5 mm 4 mps 757 mmHg 94%
    10:00 +16°C° 0.7 mm 5 mps 757 mmHg 93%
    11:00 +17°C° 0.7 mm 6 mps 756 mmHg 91%
    12:00 +20°C° 0.7 mm 7 mps 756 mmHg 90%
    13:00 +20°C° 0.4 mm 8 mps 755 mmHg 89%
    14:00 +21°C° 0.4 mm 9 mps 754 mmHg 87%
    15:00 +21°C° 0.4 mm 10 mps 753 mmHg 86%
    16:00 +21°C° 1 mm 10 mps 752 mmHg 85%
    17:00 +19°C° 1 mm 11 mps 752 mmHg 84%
    18:00 +18°C° 1 mm 12 mps 751 mmHg 83%
    19:00 +15°C° 0.3 mm 12 mps 753 mmHg 82%
    20:00 +13°C° 0.3 mm 13 mps 755 mmHg 81%
    21:00 +10°C° 0.3 mm 13 mps 757 mmHg 80%
    22:00 +9°C° 0 mm 10 mps 759 mmHg 80%
    23:00 +9°C° 0 mm 7 mps 761 mmHg 79%

    24 September, Monday

    Time Temperature Precipitation Wind Pressure Humidity
    00:00 +9°C° 0 mm 5 mps 764 mmHg 79%
    01:00 +10°C° 0 mm 4 mps 765 mmHg 79%
    02:00 +10°C° 0 mm 3 mps 766 mmHg 78%
    03:00 +10°C° 0 mm 3 mps 767 mmHg 78%
    04:00 +9°C° 0 mm 3 mps 768 mmHg 78%
    05:00 +9°C° 0 mm 3 mps 769 mmHg 78%
    06:00 +9°C° 0 mm 3 mps 770 mmHg 78%
    07:00 +11°C° 0 mm 3 mps 771 mmHg 71%
    08:00 +12°C° 0 mm 4 mps 772 mmHg 64%
    09:00 +14°C° 0 mm 5 mps 773 mmHg 56%
    10:00 +14°C° 0 mm 5 mps 773 mmHg 53%
    11:00 +15°C° 0 mm 5 mps 773 mmHg 51%
    12:00 +15°C° 0 mm 5 mps 774 mmHg 48%
    13:00 +15°C° 0 mm 5 mps 774 mmHg 48%
    14:00 +15°C° 0 mm 5 mps 774 mmHg 48%
    15:00 +15°C° 0 mm 5 mps 774 mmHg 48%
    16:00 +14°C° 0 mm 5 mps 775 mmHg 53%
    17:00 +12°C° 0 mm 4 mps 775 mmHg 58%
    18:00 +11°C° 0 mm 3 mps 776 mmHg 64%
    19:00 +10°C° 0 mm 3 mps 776 mmHg 66%
    20:00 +10°C° 0 mm 2 mps 777 mmHg 69%
    21:00 +9°C° 0 mm 2 mps 777 mmHg 72%
    22:00 +9°C° 0 mm 2 mps 778 mmHg 74%
    23:00 +9°C° 0 mm 1 mps 778 mmHg 76%

    25 September, Tuesday

    Time Temperature Precipitation Wind Pressure Humidity
    00:00 +9°C° 0 mm 1 mps 778 mmHg 78%
    01:00 +9°C° 0 mm 1 mps 778 mmHg 80%
    02:00 +8°C° 0 mm 1 mps 778 mmHg 81%
    03:00 +8°C° 0 mm 1 mps 778 mmHg 83%
    04:00 +8°C° 0 mm 1 mps 778 mmHg 83%
    05:00 +8°C° 0 mm 1 mps 779 mmHg 83%
    06:00 +8°C° 0 mm 1 mps 779 mmHg 84%
    07:00 +9°C° 0 mm 2 mps 779 mmHg 76%
    08:00 +12°C° 0 mm 2 mps 779 mmHg 68%
    09:00 +13°C° 0 mm 3 mps 779 mmHg 60%
    10:00 +13°C° 0 mm 3 mps 779 mmHg 55%
    11:00 +14°C° 0 mm 3 mps 779 mmHg 50%
    12:00 +16°C° 0 mm 3 mps 779 mmHg 45%
    13:00 +16°C° 0 mm 3 mps 778 mmHg 44%
    14:00 +17°C° 0 mm 3 mps 778 mmHg 43%
    15:00 +17°C° 0 mm 3 mps 778 mmHg 42%
    16:00 +14°C° 0 mm 3 mps 778 mmHg 47%
    17:00 +13°C° 0 mm 3 mps 778 mmHg 51%
    18:00 +11°C° 0 mm 3 mps 778 mmHg 55%
    19:00 +10°C° 0 mm 2 mps 778 mmHg 57%
    20:00 +10°C° 0 mm 2 mps 778 mmHg 59%
    21:00 +9°C° 0 mm 2 mps 778 mmHg 62%
    22:00 +9°C° 0 mm 2 mps 778 mmHg 64%
    23:00 +8°C° 0 mm 2 mps 778 mmHg 66%

    26 September, Wednesday

    Time Temperature Precipitation Wind Pressure Humidity
    00:00 +8°C° 0 mm 2 mps 777 mmHg 68%
    01:00 +7°C° 0 mm 2 mps 777 mmHg 68%
    02:00 +7°C° 0 mm 2 mps 777 mmHg 68%
    03:00 +7°C° 0 mm 2 mps 777 mmHg 68%
    04:00 +6°C° 0 mm 2 mps 777 mmHg 66%
    05:00 +6°C° 0 mm 2 mps 776 mmHg 65%
    06:00 +6°C° 0 mm 2 mps 776 mmHg 64%
    07:00 +8°C° 0 mm 2 mps 776 mmHg 58%
    08:00 +12°C° 0 mm 2 mps 776 mmHg 52%
    09:00 +14°C° 0 mm 2 mps 776 mmHg 45%
    10:00 +16°C° 0 mm 2 mps 776 mmHg 42%
    11:00 +17°C° 0 mm 2 mps 775 mmHg 38%
    12:00 +19°C° 0 mm 2 mps 775 mmHg 34%
    13:00 +20°C° 0 mm 2 mps 774 mmHg 35%
    14:00 +20°C° 0 mm 2 mps 774 mmHg 35%
    15:00 +21°C° 0 mm 2 mps 774 mmHg 36%
    16:00 +19°C° 0 mm 2 mps 773 mmHg 41%
    17:00 +17°C° 0 mm 2 mps 773 mmHg 47%
    18:00 +15°C° 0 mm 2 mps 773 mmHg 52%
    19:00 +14°C° 0 mm 2 mps 773 mmHg 55%
    20:00 +12°C° 0 mm 3 mps 773 mmHg 58%
    21:00 +11°C° 0 mm 3 mps 773 mmHg 61%
    22:00 +11°C° 0 mm 3 mps 773 mmHg 61%
    23:00 +10°C° 0 mm 3 mps 772 mmHg 61%
    Show more